307  
ASUS43 KIWX 181210  
RWRIWX  
 
KIWX WEATHER ROUNDUP  
NATIONAL WEATHER SERVICE NORTHERN INDIANA  
700 AM EST FRI JAN 18 2019  
 
NOTE: "FAIR" INDICATES FEW OR NO CLOUDS BELOW 12,000 FEET WITH NO  
SIGNIFICANT WEATHER AND/OR S TO VISIBILITY
.  
 
* THESE STATIONS ARE NOT UNDER NWS QUALITY CONTROL. THEY ALSO MAY NOT  
REPORT WEATHER SUCH AS PRECIPITATION OR FOG.
 
 
INZ001>027-181300-  
NORTHERN INDIANA  
 
CITY SKY/WX TMP DP RH WIND PRES REMARKS
 
GARY* CLOUDY 34 28 80 NW5 30.11S WCI 30  
VALPARAISO CLOUDY 33 26 75 CALM 30.10S  
6HR MIN TEMP: 33; 6HR MAX TEMP: 34;  
 
MICHIGAN CITY* CLOUDY 32 23 69 NW6 30.11R WCI 26  
LAPORTE* CLOUDY 31 27 82 NW6 30.10R WCI 26  
6HR MIN TEMP: 31; 6HR MAX TEMP: 32;  
 
KNOX* CLOUDY 32 28 86 W3 30.10R  
SOUTH BEND CLOUDY 31 26 82 W5 30.09R WCI 26  
6HR MIN TEMP: 31; 6HR MAX TEMP: 32;  
 
ELKHART* CLOUDY 32 27 80 CALM 30.08  
GOSHEN CLOUDY 31 28 89 W5 30.08R WCI 26  
6HR MIN TEMP: 31; 6HR MAX TEMP: 32;  
 
MONTICELLO* CLOUDY 30 28 94 CALM 30.12R FOG  
6HR MIN TEMP: 30; 6HR MAX TEMP: 32;  
 
LOGANSPORT* CLOUDY 32 30 93 NW3 30.12R FOG  
ROCHESTER* MOCLDY 32 30 93 W5 30.10S FOG WCI 27  
WARSAW* CLOUDY 32 28 86 W6 30.09R FOG WCI 26  
KENDALLVILLE* CLOUDY 31 28 88 NW3 30.07R FOG  
AUBURN* CLOUDY 32 32 100 W6 30.08R FOG WCI 26  
FORT WAYNE CLOUDY 34 31 88 W7 30.09R FOG WCI 28  
6HR MIN TEMP: 34; 6HR MAX TEMP: 34;  
 
HUNTINGTON* CLOUDY 31 30 95 CALM 30.10R FOG  
6HR MIN TEMP: 31; 6HR MAX TEMP: 32;  
 
PERU/GRISSOM CLOUDY 31 31 100 NW5 30.10R WCI 26  
6HR MIN TEMP: 31; 6HR MAX TEMP: 32; 6HR PCP: TRACE;  
 

 
INZ028>050-181300-  
CENTRAL INDIANA  
 
CITY SKY/WX TMP DP RH WIND PRES REMARKS
 
LAFAYETTE CLOUDY 30 29 96 W3 30.12S FOG  
6HR MIN TEMP: 30; 6HR MAX TEMP: 32;  
 
KOKOMO* CLOUDY 31 30 96 NW5 30.11R FOG WCI 26  
6HR MIN TEMP: 31; 6HR MAX TEMP: 32; 6HR PCP: TRACE;  
 
MUNCIE* CLOUDY 33 29 85 NW8 30.10R WCI 26  
6HR MIN TEMP: 33; 6HR MAX TEMP: 35;  
 
INDIANAPOLIS CLOUDY 32 29 88 W7 30.13R WCI 26  
6HR MIN TEMP: 32; 6HR MAX TEMP: 33;  
 

 
MIZ043>046-050>051-056>058-064>065-071>073-077>080-181300-  
SOUTHWEST LOWER MICHIGAN  
 
CITY SKY/WX TMP DP RH WIND PRES REMARKS
 
BATTLE CREEK CLOUDY 29 25 85 NW8 30.06S WCI 21  
6HR MIN TEMP: 29; 6HR MAX TEMP: 31;  
 
BENTON HARBOR CLOUDY 33 24 69 NW6 30.09R WCI 28  
6HR MIN TEMP: 33; 6HR MAX TEMP: 35;  
 
COLDWATER* CLOUDY 32 30 93 NW5 30.06R WCI 27  
6HR MIN TEMP: 31; 6HR MAX TEMP: 33;  
 
HILLSDALE* CLOUDY 31 28 88 W9 30.03R FOG WCI 23  
6HR MIN TEMP: 30; 6HR MAX TEMP: 32;  
 
HOLLAND CLOUDY 31 21 66 NW7 30.08S WCI 24  
6HR MIN TEMP: 31; 6HR MAX TEMP: 33;  
 
GRAND RAPIDS CLOUDY 27 22 81 NW9 30.07R WCI 18  
6HR MIN TEMP: 27; 6HR MAX TEMP: 31;  
 
KALAMAZOO CLOUDY 31 25 78 NW8 30.07R WCI 23  
6HR MIN TEMP: 30; 6HR MAX TEMP: 31;  
 
STURGIS* CLOUDY 32 29 88 NW3 30.06S  
6HR MIN TEMP: 32; 6HR MAX TEMP: 33;  
 
THREE RIVERS* CLOUDY 31 27 86 W3 30.07S  
6HR MIN TEMP: 31; 6HR MAX TEMP: 33;  
 

 
OHZ001>008-015>018-024>025-181300-  
NORTHWEST OHIO  
 
CITY SKY/WX TMP DP RH WIND PRES REMARKS
 
DEFIANCE CLOUDY 32 30 92 VRB3 30.08R FOG  
6HR MIN TEMP: 31; 6HR MAX TEMP: 32; 6HR PCP: TRACE;  
 
FINDLAY CLOUDY 34 32 92 W8 30.07R FOG WCI 27  
6HR MIN TEMP: 33; 6HR MAX TEMP: 34;  
 
OTTAWA* CLOUDY 32 30 93 W9 30.10R WCI 24  
TOLEDO EXPRESS CLOUDY 33 30 88 W7 30.06R FOG WCI 27  
6HR MIN TEMP: 32; 6HR MAX TEMP: 33; 6HR PCP: TRACE;  
 
LIMA CLOUDY 33 30 88 W10 30.07R FOG WCI 25  
6HR MIN TEMP: 33; 6HR MAX TEMP: 33;  
 

 
AND FOR LAKE MICHIGAN COASTAL AND OPEN LAKE BUOY OBSERVATIONS  
 
STATION/POSITION TEMP WIND PRES VSBY WAVE
 
AIR SEA DIR/SP/G HT/PER  
(F) (DEG/KT/KT) (MB) (MI) (FT/S)  
CALUMET HARBOR 31 320/ 5/ 6 1018.7F  
BURNS HARBOR 32 340/ 5/ 6 1019.6S  
SAINT JOSEPH 33 330/ 9/ 11 1019.6  
 

 

 
 
 
CLICK HERE TO GO TO PREVIOUS BULLETINS.

The Nexlab IN Page
The Nexlab OH Page
The Nexlab MI Page Main Text Page